Location: Fxbg
(38.3018°N, 77.4708°W)
Time: 01:50:28
(UTC-04:00)

ISS - Visible Passes

Search period start: 14 August 2022 00:00
Search period end: 24 August 2022 00:00
Orbit: 412 x 420 km, 51.6° (Epoch: 13 August)

Date Brightness Start Highest point End Pass type
(mag) Time Alt. Az. Time Alt. Az. Time Alt. Az.
20 Aug -1.0 05:42:43 10° SSE 05:44:29 14° SE 05:46:15 10° E visible
22 Aug -2.7 05:40:31 10° SSW 05:43:41 41° SE 05:46:50 10° ENE visible
23 Aug -1.8 04:54:02 19° SSE 04:55:09 22° SE 04:57:50 10° ENE visible
